Regional Weather Roundup
Issued by NWS

Home | Current Version | Previous Version | Graphics & Text | Print | Product List | Glossary On
Versions: 1 2 3 4 5 6 7 8 9 10 11 12 13 14 15 16 17 18 19 20 21 22 23 24 25 26 27 28 29 30 31 32 33 34 35 36 37 38 39 40 41 42 43 44 45 46 47 48 49 50
000
ASUS45 KTFX 111004
RWRMT
MONTANA HOURLY WEATHER ROUNDUP
NATIONAL WEATHER SERVICE GREAT FALLS MT
404 AM MDT FRI JUL 11 2014

NOTE: "FAIR" INDICATES FEW OR NO CLOUDS BELOW 12000 FEET WITH NO
SIGNIFICANT WEATHER AND/OR OBSTRUCTIONS TO VISIBILITY.

* THESE STATIONS ARE NOT UNDER NWS QUALITY CONTROL. THEY DO NOT
   REPORT WEATHER SUCH AS PRECIPITATION OR FOG.

MTZ001>007-043-111100-
WEST OF THE DIVIDE
CITY           SKY/WX    TMP DP  RH WIND       PRES   REMARKS
KALISPELL      CLEAR     66  48  52 NE20G28   29.99R
MISSOULA       CLEAR     57  39  51 CALM      30.00R
BUTTE          MOCLDY    54  41  62 S3        30.11S
MULLAN PASS    CLEAR     61  36  39 CALM      30.13S
* ESSEX        N/A      N/A N/A N/A N/A        N/A
* LINCOLN      N/A       56  45  67 E8G13      N/A
* LOOKOUT PASS N/A       57  39  51 S1         N/A
* POLSON       N/A       58  44  60 N2         N/A
* RONAN APT    CLEAR     52  46  80 N/A        N/A
* SEELEY LAKE  N/A       45  40  83 NE2        N/A
* THOMP F APT  CLEAR     64  43  47 NE4        N/A
* YAAK HILL    N/A       57  49  75 N/A        N/A
$$

MTZ008-052>055-111100-
SOUTHWEST MONTANA
CITY           SKY/WX    TMP DP  RH WIND       PRES   REMARKS
BOZEMAN        PTCLDY    54  46  74 SE6       30.03R
DILLON         MOCLDY    59  37  44 S8        30.06R
W YELLOWSTONE  MOCLDY    46  45  96 CALM      30.18R
* THREE FORKS  PTCLDY    57  57 100 N/A        N/A
* BOULDER HILL N/A       59  31  35 N12G17     N/A
* MONIDA PASS  N/A       59  46  62 N/A        N/A
* RAYNOLDS PAS N/A       53  36  53 S5         N/A
* WHITEHALL    N/A       60  40  48 N4         N/A
* WISE RIVER   N/A       52  38  59 SE4        N/A
$$

MTZ009>010-012-014-046-048-049-054-111100-
EAST SLOPES AND CENTRAL MONTANA
CITY           SKY/WX    TMP DP  RH WIND       PRES   REMARKS
CUT BANK       CLOUDY    55  48  77 N13       30.16R
GREAT FALLS    PTCLDY    59  54  84 NW8       30.08R
HELENA         CLEAR     66  54  65 NW16      30.08R
* CONRAD       PTCLDY    61  55  81 NW8        N/A
* DEARBORN     N/A       66  53  63 VRB4G21    N/A
* EAST GLACIER N/A       53  47  80 E15        N/A
* MONARCH      N/A       56  43  62 NW11G18    N/A
* PENDROY      N/A       56  51  83 N18G30     N/A
* SAINT MARY   N/A       56  49  77 N7G12      N/A
* SWEET GRASS  N/A       53  53 100 N15        N/A
$$

MTZ011-013-016-021-035-040-045-047-050-051-111100-
NORTH CENTRAL MONTANA
CITY           SKY/WX    TMP DP  RH WIND       PRES   REMARKS
HAVRE          MOCLDY    63  59  87 CALM      30.05R
* CHESTER      N/A       60  55  84 NE8G13     N/A
* DENTON       N/A       62  55  78 N10        N/A
* GEYSER       N/A       58  46  65 N/A        N/A
* JUDITH GAP   N/A       59  46  62 SW4G9      N/A
* LOMA         N/A       65  58  78 N26G38     N/A
$$

MTZ017>020-022>027-061-062-111100-
NORTHEAST MONTANA
CITY           SKY/WX    TMP DP  RH WIND       PRES   REMARKS
GLASGOW        TSTM      64  61  90 N9        30.00R
GLENDIVE       CLOUDY    64  57  78 NE12      29.95R
JORDAN         PTCLDY    66  57  73 NE9       29.95R
SIDNEY         PTCLDY    64  59  84 N9        29.94F
WOLF POINT     LGT RAIN  63  57  81 E13       29.93S
* BEAVER HILL  N/A       60  58  93 NE5        N/A
* CIRCLE       N/A       65  59  81 NE11       N/A
* LINDSAY DVD  N/A       62  59  90 NE10       N/A
* NAVAJO       N/A       60  56  87 NW8        N/A
$$

MTZ028>042-056>058-111100-
SOUTHCENTRAL AND SOUTHEAST MONTANA
CITY           SKY/WX    TMP DP  RH WIND       PRES   REMARKS
BAKER          CLEAR     61  59  93 CALM      29.93R
BILLINGS       CLEAR     66  48  52 NW5       29.93R
LIVINGSTON     CLEAR     55  43  64 NW5       30.01S
MILES CITY     CLEAR     64  61  90 NE10      29.92R
* LAUREL APT   CLEAR     66  46  49 N/A        N/A
* ROUNDUP APT  CLEAR     64  46  52 N5         N/A
* ALZADA       N/A       63  58  84 N/A        N/A
* HYSHAM       N/A       67  50  55 E6         N/A
* LAME DEER    N/A       68  48  49 E7         N/A
* REED POINT   N/A       64  46  52 W5         N/A
* ROSCOE HILL  N/A       68  39  35 NW2        N/A
$$

REGIONAL REPORTS...DAKOTAS
CITY           SKY/WX    TMP DP  RH WIND       PRES   REMARKS
WILLISTON      CLEAR     61  57  87 NW3       29.93R
DICKINSON      CLEAR     63  61  93 NW8       29.89R
CROSBY         N/A       55  55 100 CALM      29.93R
WATFORD CITY   CLEAR     59  59 100 NW5       29.92R
BISMARCK       FOG       63 N/A N/A NE8       29.84R VSB 2 1/2
GRAND FORKS    FOG       61  61 100 CALM      29.79R VSB 2
FARGO          PTCLDY    70  66  87 SE7       29.79R
BUFFALO SD     PTCLDY    63  61  93 CALM      29.86R
RAPID CITY     CLOUDY    64  63  97 SE7       29.93R
$$

REGIONAL REPORTS...WYOMING/IDAHO/WASHINGTON
CITY           SKY/WX    TMP DP  RH WIND       PRES   REMARKS
GILLETTE       CLEAR     63  55  75 S7        29.99S
SHERIDAN       MOCLDY    57  54  90 NW5       29.95S
CODY           CLEAR     66  52  61 SW14      30.03F
YELLOWSTONE LA CLEAR     45  41  86 CALM      30.29R
SALMON         CLEAR     55  52  90 CALM      29.99R
MULLAN PASS    CLEAR     61  36  39 CALM      30.13S
SAND POINT     CLEAR     54  54 100 CALM      29.94R
SPOKANE        MOCLDY    72  45  38 E5        29.91R

$$



USA.gov is the U.S. government's official web portal to all federal, state and local government web resources and services.